Voltar ao catálogo

COSMOS 1900

AtivoMilitarLEO
NORAD 18665·PAYLOAD·🇷🇺 Russia

Lançado Dec 12, 1987 de Baikonur Cosmodrome

Loading…

Próximas Passagens (próximas 24 horas)

TLE

AtualizadoSource: Space-Track

Época: Sep 14, 2026, 09:08 UTC

1 18665U 87101A   26257.38097864  .00000028  00000-0  29905-4 0  9999
2 18665  66.0834 137.2360 0029841  27.6485 332.6200 14.55685929 61460

Acompanhe COSMOS 1900 em tempo real com AllMySat

Download on the App Store